Weather History for Fort Leonard Wood, MO

Change the Weather History Date:

Tuesday, December 11, 2012

  Actual Average Record
Temperature  
Mean Temperature 30 °F -  
Max Temperature 45 °F 44 °F 62 °F (2007)
Min Temperature 14 °F 30 °F 10 °F (2000)
Degree Days  
Heating Degree Days 36    
Moisture  
Dew Point 17 °F    
Average Humidity 64    
Maximum Humidity 96    
Minimum Humidity 29    
Precipitation  
Precipitation 0.00 in - - ()
Sea Level Pressure  
Sea Level Pressure 30.14 in    
Wind  
Wind Speed 4 mph (SSW)    
Max Wind Speed 8 mph    
Max Gust Speed -    
Visibility 10 miles    
Events      
Averages and records for this station are not official NWS values.
T = Trace of Precipitation, MM = Missing Value Source: NWS Daily Summary

Daily Weather History Graph

Daily Weather History Graph

Search for Another Location

Airport:

Trip Planner

Search our weather history database for the weather conditions in past years. The results will help you decide how hot, cold, wet, or windy it might be!

Date:

Astronomy

Dec. 11, 2012 Rise Set
Actual Time 7:14 AM CST 4:50 PM CST
Civil Twilight 6:44 AM CST 5:19 PM CST
Nautical Twilight 6:12 AM CST 5:52 PM CST
Astronomical Twilight 5:40 AM CST 6:24 PM CST
Moon 5:10 AM CST (12/11) 3:28 PM CST (12/11)
Length of Visible Light 10h 34m
Length of Day
9h 35m
Waning Crescent, 4% of the Moon is Illuminated
Dec 11
Waning Crescent
Dec 13
New
Dec 19
First Quarter
Dec 28
Full
Jan 4
Last Quarter

Hourly Weather History & Observations

Time (CST) Temp. Windchill Dew Point Humidity Pressure Visibility Wind Dir Wind Speed Gust Speed Precip Events Conditions
12:55 AM 18.1 °F 12.9 °F 17.2 °F 96% 30.10 in 10.0 mi SSW 3.5 mph - N/A   Clear
1:55 AM 17.4 °F 12.1 °F 16.3 °F 96% 30.09 in 10.0 mi South 3.5 mph - N/A   Clear
2:55 AM 17.2 °F 11.9 °F 16.2 °F 96% 30.09 in 10.0 mi South 3.5 mph - N/A   Clear
3:55 AM 18.0 °F 11.1 °F 16.3 °F 93% 30.09 in 10.0 mi South 4.6 mph - N/A   Clear
4:55 AM 14.7 °F 7.3 °F 13.6 °F 95% 30.10 in 10.0 mi South 4.6 mph - N/A   Clear
5:55 AM 15.1 °F - 13.6 °F 94% 30.11 in 10.0 mi Calm Calm - N/A   Clear
6:55 AM 14.2 °F 6.7 °F 12.6 °F 93% 30.12 in 10.0 mi SSE 4.6 mph - N/A   Clear
7:55 AM 17.4 °F 10.4 °F 15.6 °F 93% 30.13 in 10.0 mi SSE 4.6 mph - N/A   Clear
8:55 AM 25.7 °F 19.0 °F 19.6 °F 78% 30.14 in 10.0 mi SSW 5.8 mph - N/A   Clear
9:55 AM 29.8 °F 23.9 °F 19.6 °F 66% 30.16 in 10.0 mi Variable 5.8 mph - N/A   Clear
10:55 AM 35.8 °F 29.4 °F 16.9 °F 46% 30.16 in 10.0 mi WSW 8.1 mph - N/A   Clear
11:55 AM 39.2 °F 35.9 °F 17.2 °F 41% 30.14 in 10.0 mi Variable 4.6 mph - N/A   Clear
12:55 PM 41.9 °F 38.2 °F 17.6 °F 38% 30.11 in 10.0 mi WSW 5.8 mph - N/A   Clear
1:55 PM 45.0 °F 42.6 °F 15.8 °F 31% 30.09 in 10.0 mi SSW 4.6 mph - N/A   Clear
2:55 PM 45.3 °F 41.6 °F 14.7 °F 29% 30.09 in 10.0 mi Variable 6.9 mph - N/A   Clear
3:55 PM 44.4 °F 40.5 °F 15.6 °F 31% 30.11 in 10.0 mi West 6.9 mph - N/A   Clear
4:55 PM 41.0 °F - 16.3 °F 37% 30.13 in 10.0 mi Calm Calm - N/A   Clear
5:55 PM 37.8 °F 35.3 °F 16.2 °F 42% 30.14 in 10.0 mi West 3.5 mph - N/A   Clear
6:55 PM 32.5 °F 29.3 °F 19.2 °F 58% 30.17 in 10.0 mi South 3.5 mph - N/A   Clear
7:55 PM 34.0 °F 31.0 °F 18.5 °F 53% 30.18 in 10.0 mi SSW 3.5 mph - N/A   Clear
8:55 PM 33.1 °F 28.7 °F 19.6 °F 58% 30.19 in 10.0 mi South 4.6 mph - N/A   Clear
9:55 PM 32.5 °F 27.1 °F 18.7 °F 57% 30.20 in 10.0 mi SSW 5.8 mph - N/A   Clear
10:55 PM 31.6 °F 27.0 °F 17.4 °F 56% 30.21 in 10.0 mi SSW 4.6 mph - N/A   Clear
11:55 PM 30.2 °F 24.3 °F 18.0 °F 60% 30.22 in 10.0 mi South 5.8 mph - N/A   Clear